West Wemyss, United Kingdom

6:25 PM BST on April 29, 2017 (GMT +0100)
Frances View | | Change Station

Elev 190 ft 56.13 °N, 3.12 °W | Updated 6 seconds ago

Mostly Cloudy
Mostly Cloudy
50.2 °F
Feels Like 50.2 °F
N
0.0
Wind Variable Wind from SW
Gusts 0.0 mph

Today
High -- | Low -- °F
--% Chance of Precip.
Yesterday
High -- | Low -- °F
Precip. -- in
Pressure 29.83 in
Visibility 6.2 miles
Clouds Few 4500 ft
Dew Point 40 °F
Humidity 67%
Rainfall 0.00 in
Snow Depth Not available.
5:32 AM 8:48 PM
Waxing Crescent, 15% visible
METAR EGPH 291720Z 17006KT 140V210 9999 FEW045 12/03 Q1010
Pressure 29.83 in
Visibility 6.2 miles
Clouds Few 4500 ft
Dew Point 40 °F
Humidity 67%
Rainfall 0.00 in
Snow Depth Not available.
5:32 AM 8:48 PM
Waxing Crescent, 15% visible
METAR EGPH 291720Z 17006KT 140V210 9999 FEW045 12/03 Q1010

Get Severe Weather Alerts

Thanks for signing up!

Be on the lookout for a verification email in your inbox.

You'll start receiving the daily forecast at 8 AM.

×

10-Day Weather Forecast

×

Almanac

Astronomy

Apr. 29, 2017 Rise Set
Actual Time
Civil Twilight
Nautical Twilight
Astronomical Twilight
Moon
Length of Visible Light
Length of Day
Tomorrow will be .
, % of the Moon is Illuminated

Today's Extremes

Country Highs Country Lows

Community

WunderPhotos

WunderBlog® & News

Nearby

Air Quality

  Air Quality AQ Index Pollutant
Not available.

Snow Depth

Station Depth Elevation

Earthquake Activity

City Distance Mag. Time & Date
Minimum magnitude displayed is 2.5.

Coastal Water Temperatures

Place Temperature

Stations

Nearby Weather Stations

Station Location Temp. Windchill Dew Point Humidity Wind Precip. Elev Updated Type